Regional Weather Roundup
Issued by NWS Little Rock, AR

Home | Current Version | Previous Version | Text Only | Print | Product List | Glossary Off
Versions: 1 2 3 4 5 6 7 8 9 10 11 12 13 14 15 16 17 18 19 20 21 22 23 24 25 26 27 28 29 30 31 32 33 34 35 36 37 38 39 40 41 42 43 44 45 46 47 48 49 50

140
ASUS44 KLZK 061405
RWRLZK

WEATHER ROUNDUP FOR ARKANSAS
NATIONAL WEATHER SERVICE LITTLE ROCK AR
800 AM CST SAT FEB 06 2016

NOTE: "FAIR" INDICATES FEW OR NO CLOUDS BELOW 12,000 FEET WITH NO
SIGNIFICANT WEATHER AND/OR OBSTRUCTIONS TO VISIBILITY.

ARZ001-003-010-029-061500-
NORTHWEST ARKANSAS

CITY           SKY/WX    TMP DP  RH WIND       PRES   REMARKS
FAYETTEVILLE   CLEAR     23  21  92 CALM      30.32R
FORT SMITH     CLEAR     32  23  69 NE5       30.35R WCI  27
HARRISON       PTCLDY    30  19  63 CALM      30.32R
BENTONVILLE    CLEAR     28  19  69 CALM      30.32R
ROGERS         CLEAR     30  24  78 SE3       30.31S
SILOAM SPGS    PTCLDY    30  16  55 CALM      30.32R
HIGHFILL       CLEAR     30  22  72 S6        30.31R WCI  24
SPRINGDALE     CLEAR     28  19  69 CALM      30.33R
$$

ARZ004-005-016-061500-
NORTH CENTRAL ARKANSAS

CITY           SKY/WX    TMP DP  RH WIND       PRES   REMARKS
BATESVILLE     PTCLDY    34  25  69 CALM      30.38R
FLIPPIN        PTCLDY    28  19  69 CALM      30.32S
MTN HOME       CLOUDY    34  21  59 S3        30.33R
$$

ARZ040-041-061500-
WEST CENTRAL ARKANSAS

CITY           SKY/WX    TMP DP  RH WIND       PRES   REMARKS
MENA           CLEAR     30  25  80 CALM      30.33R
MOUNT IDA      PTCLDY    24  20  84 CALM      30.30S
$$

ARZ009-017-025-026-028-061500-
NORTHEAST ARKANSAS

CITY           SKY/WX    TMP DP  RH WIND       PRES   REMARKS
CORNING        FAIR      30  28  93 W3        30.38S
JONESBORO      PTSUNNY   30  27  88 CALM      30.38R
NEWPORT        SUNNY     34  29  82 S3        30.39S
WALNUT RIDGE   SUNNY     28  19  69 CALM      30.38R
BLYTHEVILLE    MOSUNNY   36  27  69 S6        30.39R
$$

ARZ022-023-033-042-044-061500-
CENTRAL ARKANSAS

CITY           SKY/WX    TMP DP  RH WIND       PRES   REMARKS
LITTLE ROCK    MOCLDY    32  26  78 CALM      30.37S
N LITTLE ROCK  MOCLDY    37  22  54 CALM      30.37S
JACKSONVILLE   MOCLDY    28  23  83 CALM      30.36R
SEARCY         PTCLDY    30  28  93 N5        30.40R WCI  25
HOT SPRINGS    CLEAR     30  24  78 CALM      30.34S
RUSSELLVILLE   CLOUDY    28  25  88 CALM      30.35R
CLINTON        FAIR      25  23  93 CALM      30.38S FOG
$$

ARZ036-061500-
EAST ARKANSAS

CITY           SKY/WX    TMP DP  RH WIND       PRES   REMARKS
WEST MEMPHIS   PTSUNNY   32  31  96 S3        30.39R
$$

ARZ050-053-066-070-073-061500-
SOUTHWEST ARKANSAS

CITY           SKY/WX    TMP DP  RH WIND       PRES   REMARKS
ARKADELPHIA    FAIR      30  29  96 CALM      30.36S
CAMDEN         CLEAR     30  27  86 CALM      30.36S
TEXARKANA      MOCLDY    36  26  67 CALM      30.32R
EL DORADO      MOSUNNY   34  28  79 CALM      30.36R
DE QUEEN       PTCLDY    33  26  75 E3        30.32R
$$

ARZ056-057-069-061500-
SOUTHEAST ARKANSAS

CITY           SKY/WX    TMP DP  RH WIND       PRES   REMARKS
PINE BLUFF     CLOUDY    32  28  85 CALM      30.37R
STUTTGART      CLOUDY    37  28  70 E5        30.38R
MONTICELLO     CLOUDY    34  28  79 CALM      30.36S

$$






USA.gov is the U.S. government's official web portal to all federal, state and local government web resources and services.